StationID,Date,MaxTemp,MinTemp,Precipitation,Snowfall,SnowDepth
"CA001038330","1914-06-01",,,0.00,0.00,
"CA001038330","1914-06-02",,,0.00,0.00,
"CA001038330","1914-06-03",,,0.00,0.00,
"CA001038330","1914-06-04",,,0.00,0.00,
"CA001038330","1914-06-05",,,0.00,0.00,
"CA001038330","1914-06-06",,,76.00,0.00,
"CA001038330","1914-06-07",,,152.00,0.00,
"CA001038330","1914-06-08",,,0.00,0.00,
"CA001038330","1914-06-09",,,0.00,0.00,
"CA001038330","1914-06-10",,,0.00,0.00,
"CA001038330","1914-06-11",,,0.00,0.00,
"CA001038330","1914-06-12",,,0.00,0.00,
"CA001038330","1914-06-13",,,0.00,0.00,
"CA001038330","1914-06-14",,,0.00,0.00,
"CA001038330","1914-06-15",,,0.00,0.00,
"CA001038330","1914-06-16",,,0.00,0.00,
"CA001038330","1914-06-17",,,0.00,0.00,
"CA001038330","1914-06-18",,,0.00,0.00,
"CA001038330","1914-06-19",,,0.00,0.00,
"CA001038330","1914-06-20",,,152.00,0.00,
"CA001038330","1914-06-21",,,51.00,0.00,
"CA001038330","1914-06-22",,,0.00,0.00,
"CA001038330","1914-06-23",,,0.00,0.00,
"CA001038330","1914-06-24",,,127.00,0.00,
"CA001038330","1914-06-25",,,38.00,0.00,
"CA001038330","1914-06-26",,,102.00,0.00,
"CA001038330","1914-06-27",,,0.00,0.00,
"CA001038330","1914-06-28",,,0.00,0.00,
"CA001038330","1914-06-29",,,0.00,0.00,
"CA001038330","1914-06-30",,,0.00,0.00,
"CA001038330","1914-07-01",,,0.00,0.00,
"CA001038330","1914-07-02",,,0.00,0.00,
"CA001038330","1914-07-03",,,0.00,0.00,
"CA001038330","1914-07-04",,,0.00,0.00,
"CA001038330","1914-07-05",,,0.00,0.00,
"CA001038330","1914-07-06",,,0.00,0.00,
"CA001038330","1914-07-07",,,0.00,0.00,
"CA001038330","1914-07-08",,,0.00,0.00,
"CA001038330","1914-07-09",,,0.00,0.00,
"CA001038330","1914-07-10",,,0.00,0.00,
"CA001038330","1914-07-11",,,0.00,0.00,
"CA001038330","1914-07-12",,,0.00,0.00,
"CA001038330","1914-07-13",,,0.00,0.00,
"CA001038330","1914-07-14",,,23.00,0.00,
"CA001038330","1914-07-15",,,0.00,0.00,
"CA001038330","1914-07-16",,,0.00,0.00,
"CA001038330","1914-07-17",,,0.00,0.00,
"CA001038330","1914-07-18",,,0.00,0.00,
"CA001038330","1914-07-19",,,0.00,0.00,
"CA001038330","1914-07-20",,,0.00,0.00,
"CA001038330","1914-07-21",,,0.00,0.00,
"CA001038330","1914-07-22",,,0.00,0.00,
"CA001038330","1914-07-23",,,0.00,0.00,
"CA001038330","1914-07-24",,,8.00,0.00,
"CA001038330","1914-07-25",,,3.00,0.00,
"CA001038330","1914-07-26",,,0.00,0.00,
"CA001038330","1914-07-27",,,0.00,0.00,
"CA001038330","1914-07-28",,,0.00,0.00,
"CA001038330","1914-07-29",,,0.00,0.00,
"CA001038330","1914-07-30",,,0.00,0.00,
"CA001038330","1914-07-31",,,0.00,0.00,
"CA001038330","1914-08-01",69.98,51.98,0.00,0.00,
"CA001038330","1914-08-02",64.04,51.98,0.00,0.00,
"CA001038330","1914-08-03",66.02,46.94,0.00,0.00,
"CA001038330","1914-08-04",66.92,46.94,0.00,0.00,
"CA001038330","1914-08-05",66.92,53.96,13.00,0.00,
"CA001038330","1914-08-06",62.96,51.98,0.00,0.00,
"CA001038330","1914-08-07",60.98,53.06,38.00,0.00,
"CA001038330","1914-08-08",64.04,50.00,64.00,0.00,
"CA001038330","1914-08-09",64.94,50.00,0.00,0.00,
"CA001038330","1914-08-10",69.98,53.06,0.00,0.00,
"CA001038330","1914-08-11",68.00,50.00,0.00,0.00,
"CA001038330","1914-08-12",71.96,51.98,0.00,0.00,
"CA001038330","1914-08-13",75.02,50.00,0.00,0.00,
"CA001038330","1914-08-14",64.04,48.02,0.00,0.00,
"CA001038330","1914-08-15",64.04,51.98,0.00,0.00,
"CA001038330","1914-08-16",66.02,46.94,0.00,0.00,
"CA001038330","1914-08-17",66.92,44.96,0.00,0.00,
"CA001038330","1914-08-18",69.08,42.08,0.00,0.00,
"CA001038330","1914-08-19",71.96,51.98,0.00,0.00,
"CA001038330","1914-08-20",62.96,51.98,0.00,0.00,
"CA001038330","1914-08-21",64.04,53.96,0.00,0.00,
"CA001038330","1914-08-22",62.96,48.92,0.00,0.00,
"CA001038330","1914-08-23",66.02,42.08,0.00,0.00,
"CA001038330","1914-08-24",62.96,51.08,0.00,0.00,
"CA001038330","1914-08-25",62.06,50.00,0.00,0.00,
"CA001038330","1914-08-26",62.06,51.08,0.00,0.00,
"CA001038330","1914-08-27",64.04,53.96,5.00,0.00,
"CA001038330","1914-08-28",64.04,51.98,0.00,0.00,
"CA001038330","1914-08-29",60.98,51.98,3.00,0.00,
"CA001038330","1914-08-30",62.06,44.06,5.00,0.00,
"CA001038330","1914-08-31",62.06,46.94,0.00,0.00,
"CA001038330","1914-09-01",64.04,48.02,0.00,0.00,
"CA001038330","1914-09-02",60.08,44.96,0.00,0.00,
"CA001038330","1914-09-03",59.00,44.06,0.00,0.00,
"CA001038330","1914-09-04",62.06,48.92,0.00,0.00,
"CA001038330","1914-09-05",64.04,44.06,0.00,0.00,
"CA001038330","1914-09-06",64.04,44.06,94.00,0.00,
"CA001038330","1914-09-07",55.04,51.98,36.00,0.00,
"CA001038330","1914-09-08",57.02,44.96,0.00,0.00,
"CA001038330","1914-09-09",55.04,51.98,163.00,0.00,
"CA001038330","1914-09-10",59.00,48.02,23.00,0.00,
"CA001038330","1914-09-11",57.02,42.08,0.00,0.00,
"CA001038330","1914-09-12",57.92,44.06,5.00,0.00,
"CA001038330","1914-09-13",57.02,46.94,8.00,0.00,
"CA001038330","1914-09-14",57.92,39.02,13.00,0.00,
"CA001038330","1914-09-15",57.02,42.98,23.00,0.00,
"CA001038330","1914-09-16",51.98,48.02,142.00,0.00,
"CA001038330","1914-09-17",57.02,50.00,112.00,0.00,
"CA001038330","1914-09-18",57.02,51.08,505.00,0.00,
"CA001038330","1914-09-19",57.92,50.00,23.00,0.00,
"CA001038330","1914-09-20",59.00,51.98,5.00,0.00,
"CA001038330","1914-09-21",59.00,48.92,0.00,0.00,
"CA001038330","1914-09-22",64.94,44.96,3.00,0.00,
"CA001038330","1914-09-23",66.02,44.06,0.00,0.00,
"CA001038330","1914-09-24",68.00,51.98,48.00,0.00,
"CA001038330","1914-09-25",68.00,51.98,457.00,0.00,
"CA001038330","1914-09-26",55.94,46.94,203.00,0.00,
"CA001038330","1914-09-27",57.02,42.98,10.00,0.00,
"CA001038330","1914-09-28",53.96,50.00,104.00,0.00,
"CA001038330","1914-09-29",55.94,39.92,5.00,0.00,
"CA001038330","1914-09-30",55.94,39.02,117.00,0.00,
"CA001038330","1914-10-01",48.92,39.92,201.00,0.00,
"CA001038330","1914-10-02",57.02,35.96,0.00,0.00,
"CA001038330","1914-10-03",55.04,48.92,0.00,0.00,
"CA001038330","1914-10-04",57.02,51.98,0.00,0.00,
"CA001038330","1914-10-05",60.98,53.06,0.00,0.00,
"CA001038330","1914-10-06",60.08,53.96,0.00,0.00,
"CA001038330","1914-10-07",59.00,51.08,3.00,0.00,
"CA001038330","1914-10-08",60.08,53.96,112.00,0.00,
"CA001038330","1914-10-09",60.08,51.98,135.00,0.00,
"CA001038330","1914-10-10",59.00,50.00,5.00,0.00,
"CA001038330","1914-10-11",55.04,51.08,833.00,0.00,
"CA001038330","1914-10-12",57.02,55.04,719.00,0.00,
"CA001038330","1914-10-13",57.02,55.04,274.00,0.00,
"CA001038330","1914-10-14",66.92,53.06,38.00,0.00,
"CA001038330","1914-10-15",55.94,53.96,409.00,0.00,
"CA001038330","1914-10-16",57.92,48.02,460.00,0.00,
"CA001038330","1914-10-17",55.94,48.02,185.00,0.00,
"CA001038330","1914-10-18",53.96,48.02,117.00,0.00,
"CA001038330","1914-10-19",57.02,44.96,218.00,0.00,
"CA001038330","1914-10-20",48.92,44.06,612.00,0.00,
"CA001038330","1914-10-21",51.98,44.96,79.00,0.00,
"CA001038330","1914-10-22",60.98,51.98,0.00,0.00,
"CA001038330","1914-10-23",62.06,44.06,0.00,0.00,
"CA001038330","1914-10-24",64.04,48.02,109.00,0.00,
"CA001038330","1914-10-25",57.02,53.06,20.00,0.00,
"CA001038330","1914-10-26",60.98,44.06,0.00,0.00,
"CA001038330","1914-10-27",62.96,44.96,0.00,0.00,
"CA001038330","1914-10-28",62.06,48.92,33.00,0.00,
"CA001038330","1914-10-29",55.04,53.06,254.00,0.00,
"CA001038330","1914-10-30",55.04,48.92,206.00,0.00,
"CA001038330","1914-10-31",53.96,46.94,188.00,0.00,
"CA001038330","1914-11-01",53.06,44.96,267.00,0.00,
"CA001038330","1914-11-02",50.00,44.96,155.00,0.00,
"CA001038330","1914-11-03",53.96,44.96,165.00,0.00,
"CA001038330","1914-11-04",53.06,37.94,0.00,0.00,
"CA001038330","1914-11-05",51.08,39.02,127.00,0.00,
"CA001038330","1914-11-06",48.02,37.04,180.00,0.00,
"CA001038330","1914-11-07",53.96,48.02,815.00,0.00,
"CA001038330","1914-11-08",55.04,42.98,94.00,0.00,
"CA001038330","1914-11-09",53.06,44.06,381.00,0.00,
"CA001038330","1914-11-10",53.96,39.02,180.00,0.00,
"CA001038330","1914-11-11",50.00,35.96,127.00,0.00,
"CA001038330","1914-11-12",44.96,35.96,0.00,0.00,
"CA001038330","1914-11-13",46.94,28.94,0.00,0.00,
"CA001038330","1914-11-14",44.96,30.02,0.00,0.00,
"CA001038330","1914-11-15",44.96,35.96,20.00,0.00,
"CA001038330","1914-11-16",42.98,37.04,0.00,0.00,
"CA001038330","1914-11-17",48.92,30.92,0.00,0.00,
"CA001038330","1914-11-18",53.06,41.00,498.00,0.00,
"CA001038330","1914-11-19",53.96,46.04,0.00,0.00,
"CA001038330","1914-11-20",53.96,48.02,302.00,0.00,
"CA001038330","1914-11-21",51.08,44.06,734.00,0.00,
"CA001038330","1914-11-22",51.98,46.04,53.00,0.00,
"CA001038330","1914-11-23",53.06,46.04,353.00,0.00,
"CA001038330","1914-11-24",51.98,48.02,188.00,0.00,
"CA001038330","1914-11-25",50.00,33.08,15.00,0.00,
"CA001038330","1914-11-26",48.92,37.94,467.00,0.00,
"CA001038330","1914-11-27",44.96,32.00,140.00,0.00,
"CA001038330","1914-11-28",42.98,30.02,30.00,0.00,
"CA001038330","1914-11-29",39.92,33.98,160.00,0.00,
"CA001038330","1914-11-30",44.06,37.04,503.00,0.00,
"CA001038330","1914-12-01",42.08,33.98,18.00,0.00,
"CA001038330","1914-12-02",44.06,35.06,371.00,0.00,
"CA001038330","1914-12-03",44.96,33.98,79.00,0.00,
"CA001038330","1914-12-04",44.96,28.94,13.00,0.00,
"CA001038330","1914-12-05",42.08,30.92,18.00,0.00,
"CA001038330","1914-12-06",44.96,33.08,480.00,0.00,
"CA001038330","1914-12-07",48.02,44.96,0.00,0.00,
"CA001038330","1914-12-08",48.02,42.08,0.00,0.00,
"CA001038330","1914-12-09",50.00,28.04,0.00,0.00,
"CA001038330","1914-12-10",42.98,26.96,0.00,0.00,
"CA001038330","1914-12-11",41.00,24.08,0.00,0.00,
"CA001038330","1914-12-12",35.96,24.08,0.00,0.00,
"CA001038330","1914-12-13",39.02,26.96,0.00,0.00,
"CA001038330","1914-12-14",39.02,33.98,20.00,0.00,
"CA001038330","1914-12-15",39.02,23.00,0.00,0.00,
"CA001038330","1914-12-16",37.04,23.00,0.00,0.00,
"CA001038330","1914-12-17",35.06,24.98,0.00,0.00,
"CA001038330","1914-12-18",39.92,26.96,30.00,0.00,
"CA001038330","1914-12-19",37.94,26.06,0.00,0.00,
"CA001038330","1914-12-20",37.94,32.00,0.00,0.00,
"CA001038330","1914-12-21",42.98,35.96,0.00,0.00,
"CA001038330","1914-12-22",44.96,37.04,0.00,0.00,
"CA001038330","1914-12-23",46.94,35.06,0.00,0.00,
"CA001038330","1914-12-24",46.04,35.06,30.00,0.00,
"CA001038330","1914-12-25",48.02,39.02,0.00,0.00,
"CA001038330","1914-12-26",46.04,37.04,157.00,0.00,
"CA001038330","1914-12-27",44.96,30.02,163.00,0.00,
"CA001038330","1914-12-28",42.98,35.06,91.00,0.00,
"CA001038330","1914-12-29",48.02,39.92,188.00,0.00,
"CA001038330","1914-12-30",48.92,33.08,33.00,0.00,
"CA001038330","1914-12-31",48.02,44.06,401.00,0.00,
"CA001038330","1915-01-01",46.94,39.92,328.00,0.00,
"CA001038330","1915-01-02",42.98,33.08,150.00,0.00,
"CA001038330","1915-01-03",39.92,28.94,0.00,0.00,
"CA001038330","1915-01-04",42.98,35.96,119.00,0.00,
"CA001038330","1915-01-05",48.02,41.00,43.00,0.00,
"CA001038330","1915-01-06",48.92,44.06,236.00,0.00,
"CA001038330","1915-01-07",46.94,37.94,328.00,0.00,
"CA001038330","1915-01-08",46.04,30.02,28.00,0.00,
"CA001038330","1915-01-09",46.04,37.04,851.00,0.00,
"CA001038330","1915-01-10",48.02,39.02,218.00,0.00,
"CA001038330","1915-01-11",42.98,30.02,18.00,0.00,
"CA001038330","1915-01-12",39.92,32.00,191.00,0.00,
"CA001038330","1915-01-13",44.06,35.06,89.00,0.00,
"CA001038330","1915-01-14",44.06,32.00,0.00,0.00,
"CA001038330","1915-01-15",39.92,30.02,0.00,0.00,
"CA001038330","1915-01-16",41.00,26.96,0.00,0.00,
"CA001038330","1915-01-17",39.92,23.00,0.00,0.00,
"CA001038330","1915-01-18",42.08,26.06,0.00,0.00,
"CA001038330","1915-01-19",42.98,26.06,0.00,0.00,
"CA001038330","1915-01-20",41.00,24.98,0.00,0.00,
"CA001038330","1915-01-21",44.06,23.00,0.00,0.00,
"CA001038330","1915-01-22",39.92,24.98,0.00,0.00,
"CA001038330","1915-01-23",39.92,23.00,0.00,0.00,
"CA001038330","1915-01-24",41.00,24.08,0.00,0.00,
"CA001038330","1915-01-25",41.00,28.94,0.00,0.00,
"CA001038330","1915-01-26",42.98,24.08,0.00,0.00,
"CA001038330","1915-01-27",42.98,24.98,8.00,0.00,
"CA001038330","1915-01-28",48.02,30.02,0.00,0.00,
"CA001038330","1915-01-29",57.02,32.00,0.00,0.00,
"CA001038330","1915-01-30",50.00,39.92,150.00,0.00,
"CA001038330","1915-01-31",50.00,42.98,264.00,0.00,
"CA001038330","1915-02-01",51.08,33.98,64.00,0.00,
"CA001038330","1915-02-02",48.02,35.06,20.00,0.00,
"CA001038330","1915-02-03",42.98,28.94,150.00,0.00,
"CA001038330","1915-02-04",44.96,30.02,239.00,0.00,
"CA001038330","1915-02-05",48.02,35.96,221.00,0.00,
"CA001038330","1915-02-06",53.96,44.96,257.00,0.00,
"CA001038330","1915-02-07",55.94,39.92,56.00,0.00,
"CA001038330","1915-02-08",55.04,44.96,107.00,0.00,
"CA001038330","1915-02-09",48.02,39.92,112.00,0.00,
"CA001038330","1915-02-10",48.92,30.92,0.00,0.00,
"CA001038330","1915-02-11",46.04,33.98,71.00,0.00,
"CA001038330","1915-02-12",44.96,28.94,10.00,0.00,
"CA001038330","1915-02-13",44.06,37.94,142.00,0.00,
"CA001038330","1915-02-14",44.96,39.92,163.00,0.00,
"CA001038330","1915-02-15",48.92,39.02,97.00,0.00,
"CA001038330","1915-02-16",46.04,37.04,97.00,0.00,
"CA001038330","1915-02-17",44.96,28.04,0.00,0.00,
"CA001038330","1915-02-18",44.96,26.96,0.00,0.00,
"CA001038330","1915-02-19",53.96,30.92,0.00,0.00,
"CA001038330","1915-02-20",51.98,39.92,56.00,0.00,
"CA001038330","1915-02-21",48.02,33.08,333.00,0.00,
"CA001038330","1915-02-22",44.06,35.96,318.00,0.00,
"CA001038330","1915-02-23",48.02,39.02,165.00,0.00,
"CA001038330","1915-02-24",48.02,35.96,213.00,0.00,
"CA001038330","1915-02-25",46.94,35.06,0.00,0.00,
"CA001038330","1915-02-26",46.94,42.08,211.00,0.00,
"CA001038330","1915-02-27",48.92,37.04,94.00,0.00,
"CA001038330","1915-02-28",51.08,30.02,0.00,0.00,
"CA001038330","1915-03-01",50.00,33.08,0.00,0.00,
"CA001038330","1915-03-02",44.96,39.02,56.00,0.00,
"CA001038330","1915-03-03",44.06,39.02,170.00,0.00,
"CA001038330","1915-03-04",50.00,39.92,114.00,0.00,
"CA001038330","1915-03-05",46.04,33.98,427.00,0.00,
"CA001038330","1915-03-06",50.00,30.02,0.00,0.00,
"CA001038330","1915-03-07",51.08,35.06,0.00,0.00,
"CA001038330","1915-03-08",57.02,35.06,0.00,0.00,
"CA001038330","1915-03-09",48.92,35.96,132.00,0.00,
"CA001038330","1915-03-10",48.92,39.92,117.00,0.00,
"CA001038330","1915-03-11",48.02,39.92,20.00,0.00,
"CA001038330","1915-03-12",51.98,42.98,71.00,0.00,
"CA001038330","1915-03-13",50.00,44.96,384.00,0.00,
"CA001038330","1915-03-14",51.08,44.06,366.00,0.00,
"CA001038330","1915-03-15",53.96,44.96,0.00,0.00,
"CA001038330","1915-03-16",53.96,46.94,213.00,0.00,
"CA001038330","1915-03-17",53.06,37.94,160.00,0.00,
"CA001038330","1915-03-18",51.08,39.02,18.00,0.00,
"CA001038330","1915-03-19",57.92,35.06,0.00,0.00,
"CA001038330","1915-03-20",64.04,39.92,0.00,0.00,
"CA001038330","1915-03-21",64.04,42.08,0.00,0.00,
"CA001038330","1915-03-22",60.08,37.94,0.00,0.00,
"CA001038330","1915-03-23",55.04,39.92,0.00,0.00,
"CA001038330","1915-03-24",60.08,39.02,0.00,0.00,
"CA001038330","1915-03-25",60.08,33.98,0.00,0.00,
"CA001038330","1915-03-26",57.92,37.04,0.00,0.00,
"CA001038330","1915-03-27",62.06,37.94,0.00,0.00,
"CA001038330","1915-03-28",62.06,48.02,13.00,0.00,
"CA001038330","1915-03-29",51.98,44.96,254.00,0.00,
"CA001038330","1915-03-30",55.04,39.02,180.00,0.00,
"CA001038330","1915-03-31",51.08,44.06,523.00,0.00,
"CA001038330","1915-04-01",51.08,50.00,638.00,0.00,
"CA001038330","1915-04-02",51.98,46.94,109.00,0.00,
"CA001038330","1915-04-03",51.98,44.96,89.00,0.00,
"CA001038330","1915-04-04",55.04,33.98,0.00,0.00,
"CA001038330","1915-04-05",55.04,39.92,0.00,0.00,
"CA001038330","1915-04-06",55.94,42.08,211.00,0.00,
"CA001038330","1915-04-07",53.96,37.94,155.00,0.00,
"CA001038330","1915-04-08",57.02,44.06,130.00,0.00,
"CA001038330","1915-04-09",60.98,44.96,0.00,0.00,
"CA001038330","1915-04-10",55.94,46.94,56.00,0.00,
"CA001038330","1915-04-11",51.98,46.04,165.00,0.00,
"CA001038330","1915-04-12",50.00,42.98,267.00,0.00,
"CA001038330","1915-04-13",53.96,35.96,0.00,0.00,
"CA001038330","1915-04-14",55.04,35.06,0.00,0.00,
"CA001038330","1915-04-15",60.08,39.92,0.00,0.00,
"CA001038330","1915-04-16",62.06,44.96,0.00,0.00,
"CA001038330","1915-04-17",57.02,44.96,0.00,0.00,
"CA001038330","1915-04-18",55.04,44.96,0.00,0.00,
"CA001038330","1915-04-19",55.94,39.92,0.00,0.00,
"CA001038330","1915-04-20",57.02,33.98,0.00,0.00,
"CA001038330","1915-04-21",55.94,35.96,0.00,0.00,
"CA001038330","1915-04-22",59.00,35.96,0.00,0.00,
"CA001038330","1915-04-23",59.00,37.04,0.00,0.00,
"CA001038330","1915-04-24",57.02,35.06,10.00,0.00,
"CA001038330","1915-04-25",55.94,41.00,5.00,0.00,
"CA001038330","1915-04-26",55.04,39.02,0.00,0.00,
"CA001038330","1915-04-27",55.94,33.98,0.00,0.00,
"CA001038330","1915-04-28",55.94,39.92,0.00,0.00,
"CA001038330","1915-04-29",50.00,30.02,0.00,0.00,
"CA001038330","1915-04-30",55.94,39.92,0.00,0.00,
"CA001038330","1915-05-01",60.08,44.96,0.00,0.00,
"CA001038330","1915-05-02",62.06,42.98,5.00,0.00,
"CA001038330","1915-05-03",62.06,41.00,0.00,0.00,
"CA001038330","1915-05-04",68.00,42.98,0.00,0.00,
"CA001038330","1915-05-05",64.94,48.02,0.00,0.00,
"CA001038330","1915-05-06",53.96,46.94,0.00,0.00,
"CA001038330","1915-05-07",53.06,46.04,0.00,0.00,
"CA001038330","1915-05-08",57.02,42.98,48.00,0.00,
"CA001038330","1915-05-09",53.96,48.02,272.00,0.00,
"CA001038330","1915-05-10",53.06,46.94,173.00,0.00,
"CA001038330","1915-05-11",55.04,48.02,152.00,0.00,
"CA001038330","1915-05-12",57.92,46.94,61.00,0.00,
"CA001038330","1915-05-13",57.92,44.96,25.00,0.00,
"CA001038330","1915-05-14",55.04,42.08,10.00,0.00,
"CA001038330","1915-05-15",60.08,37.04,0.00,0.00,
"CA001038330","1915-05-16",66.92,50.00,20.00,0.00,
"CA001038330","1915-05-17",55.04,50.00,30.00,0.00,
"CA001038330","1915-05-18",60.08,46.04,8.00,0.00,
"CA001038330","1915-05-19",60.98,48.02,36.00,0.00,
"CA001038330","1915-05-20",59.00,48.92,56.00,0.00,
"CA001038330","1915-05-21",57.92,48.92,84.00,0.00,
"CA001038330","1915-05-22",57.02,48.02,117.00,0.00,
"CA001038330","1915-05-23",57.02,46.94,61.00,0.00,
"CA001038330","1915-05-24",59.00,50.00,71.00,0.00,
"CA001038330","1915-05-25",55.04,46.94,229.00,0.00,
"CA001038330","1915-05-26",53.96,50.00,254.00,0.00,
"CA001038330","1915-05-27",55.04,42.08,46.00,0.00,
"CA001038330","1915-05-28",57.02,37.04,8.00,0.00,
"CA001038330","1915-05-29",57.92,39.92,0.00,0.00,
"CA001038330","1915-05-30",62.06,46.94,51.00,0.00,
"CA001038330","1915-05-31",60.08,44.06,18.00,0.00,
"CA001038330","1915-06-01",60.08,39.92,0.00,0.00,
"CA001038330","1915-06-02",62.96,42.08,0.00,0.00,
"CA001038330","1915-06-03",62.96,42.08,0.00,0.00,
"CA001038330","1915-06-04",69.08,48.92,0.00,0.00,
"CA001038330","1915-06-05",78.08,48.92,0.00,0.00,
"CA001038330","1915-06-06",64.04,41.00,0.00,0.00,
"CA001038330","1915-06-07",60.08,48.92,0.00,0.00,
"CA001038330","1915-06-08",57.92,42.98,0.00,0.00,
"CA001038330","1915-06-09",60.08,39.92,0.00,0.00,
"CA001038330","1915-06-10",60.08,51.08,0.00,0.00,
"CA001038330","1915-06-11",62.96,51.98,0.00,0.00,
"CA001038330","1915-06-12",60.08,53.06,0.00,0.00,
"CA001038330","1915-06-13",60.98,50.00,0.00,0.00,
"CA001038330","1915-06-14",60.98,46.94,0.00,0.00,
"CA001038330","1915-06-15",59.00,48.92,0.00,0.00,
"CA001038330","1915-06-16",57.02,48.02,0.00,0.00,
"CA001038330","1915-06-17",62.06,51.98,0.00,0.00,
"CA001038330","1915-06-18",60.98,51.08,0.00,0.00,
"CA001038330","1915-06-19",60.08,50.00,8.00,0.00,
"CA001038330","1915-06-20",62.06,41.00,127.00,0.00,
"CA001038330","1915-06-21",64.04,39.92,137.00,0.00,
"CA001038330","1915-06-22",64.94,53.06,0.00,0.00,
"CA001038330","1915-06-23",64.94,50.00,0.00,0.00,
"CA001038330","1915-06-24",64.04,51.08,0.00,0.00,
"CA001038330","1915-06-25",60.98,42.98,10.00,0.00,
"CA001038330","1915-06-26",64.04,53.06,0.00,0.00,
"CA001038330","1915-06-27",60.08,48.02,0.00,0.00,
"CA001038330","1915-06-28",66.92,46.94,0.00,0.00,
"CA001038330","1915-06-29",80.06,50.00,0.00,0.00,
"CA001038330","1915-06-30",82.04,51.08,0.00,0.00,
"CA001038330","1915-07-01",82.04,44.06,0.00,0.00,
"CA001038330","1915-07-02",64.04,53.06,0.00,0.00,
"CA001038330","1915-07-03",62.06,53.06,0.00,0.00,
"CA001038330","1915-07-04",60.98,51.98,38.00,0.00,
"CA001038330","1915-07-05",60.08,53.96,157.00,0.00,
"CA001038330","1915-07-06",62.06,42.98,0.00,0.00,
"CA001038330","1915-07-07",64.04,42.08,198.00,0.00,
"CA001038330","1915-07-08",64.04,53.96,0.00,0.00,
"CA001038330","1915-07-09",62.96,48.92,43.00,0.00,
"CA001038330","1915-07-10",60.98,48.92,23.00,0.00,
"CA001038330","1915-07-11",62.96,48.92,69.00,0.00,
"CA001038330","1915-07-12",59.00,48.02,20.00,0.00,
"CA001038330","1915-07-13",59.00,48.92,51.00,0.00,
"CA001038330","1915-07-14",59.00,53.06,0.00,0.00,
"CA001038330","1915-07-15",64.04,44.96,0.00,0.00,
"CA001038330","1915-07-16",64.04,53.96,0.00,0.00,
"CA001038330","1915-07-17",64.94,46.04,0.00,0.00,
"CA001038330","1915-07-18",69.08,46.94,0.00,0.00,
"CA001038330","1915-07-19",69.98,48.92,0.00,0.00,
"CA001038330","1915-07-20",75.92,55.04,0.00,0.00,
"CA001038330","1915-07-21",64.04,46.04,0.00,0.00,
"CA001038330","1915-07-22",66.02,44.96,0.00,0.00,
"CA001038330","1915-07-23",71.06,46.94,0.00,0.00,
"CA001038330","1915-07-24",64.94,50.00,0.00,0.00,
"CA001038330","1915-07-25",62.06,53.06,0.00,0.00,
"CA001038330","1915-07-26",64.04,53.96,0.00,0.00,
"CA001038330","1915-07-27",62.96,50.00,0.00,0.00,
"CA001038330","1915-07-28",69.08,53.06,0.00,0.00,
"CA001038330","1915-07-29",66.92,53.96,0.00,0.00,
"CA001038330","1915-07-30",62.96,53.96,0.00,0.00,
"CA001038330","1915-07-31",64.04,53.96,0.00,0.00,
"CA001038330","1915-08-01",62.96,48.92,0.00,0.00,
"CA001038330","1915-08-02",62.96,50.00,89.00,0.00,
"CA001038330","1915-08-03",62.06,48.02,0.00,0.00,
"CA001038330","1915-08-04",60.98,46.94,0.00,0.00,
"CA001038330","1915-08-05",69.08,53.96,84.00,0.00,
"CA001038330","1915-08-06",64.04,55.94,0.00,0.00,
"CA001038330","1915-08-07",60.98,51.08,0.00,0.00,
"CA001038330","1915-08-08",66.02,53.06,0.00,0.00,
"CA001038330","1915-08-09",69.98,51.08,0.00,0.00,
"CA001038330","1915-08-10",69.98,55.94,76.00,0.00,
"CA001038330","1915-08-11",66.92,53.06,0.00,0.00,
"CA001038330","1915-08-12",66.02,48.92,0.00,0.00,
"CA001038330","1915-08-13",66.92,55.04,0.00,0.00,
"CA001038330","1915-08-14",66.02,55.94,0.00,0.00,
"CA001038330","1915-08-15",68.00,55.94,0.00,0.00,
"CA001038330","1915-08-16",60.98,55.04,0.00,0.00,
"CA001038330","1915-08-17",68.00,50.00,0.00,0.00,
"CA001038330","1915-08-18",73.04,51.08,0.00,0.00,
"CA001038330","1915-08-19",80.06,53.06,0.00,0.00,
"CA001038330","1915-08-20",89.06,55.94,0.00,0.00,
"CA001038330","1915-08-21",87.98,53.96,0.00,0.00,
"CA001038330","1915-08-22",66.02,48.02,0.00,0.00,
"CA001038330","1915-08-23",60.98,53.96,0.00,0.00,
"CA001038330","1915-08-24",62.96,55.04,0.00,0.00,
"CA001038330","1915-08-25",68.00,48.92,0.00,0.00,
"CA001038330","1915-08-26",66.92,44.96,0.00,0.00,
"CA001038330","1915-08-27",71.06,48.02,0.00,0.00,
"CA001038330","1915-08-28",80.96,48.92,0.00,0.00,
"CA001038330","1915-08-29",69.98,55.04,127.00,0.00,
"CA001038330","1915-08-30",60.08,53.96,0.00,0.00,
"CA001038330","1915-08-31",60.08,53.06,94.00,0.00,
"CA001038330","1915-09-01",66.92,46.94,0.00,0.00,
"CA001038330","1915-09-02",66.02,48.92,0.00,0.00,
"CA001038330","1915-09-03",71.06,53.96,0.00,0.00,
"CA001038330","1915-09-04",66.02,46.04,0.00,0.00,
"CA001038330","1915-09-05",62.96,44.96,0.00,0.00,
"CA001038330","1915-09-06",60.98,50.00,69.00,0.00,
"CA001038330","1915-09-07",57.02,50.00,267.00,0.00,
"CA001038330","1915-09-08",60.98,44.96,0.00,0.00,
"CA001038330","1915-09-09",64.04,42.08,0.00,0.00,
"CA001038330","1915-09-10",69.98,39.92,0.00,0.00,
"CA001038330","1915-09-11",60.08,46.04,0.00,0.00,
"CA001038330","1915-09-12",64.94,44.06,0.00,0.00,
"CA001038330","1915-09-13",64.04,48.92,0.00,0.00,
"CA001038330","1915-09-14",62.96,51.98,0.00,0.00,
"CA001038330","1915-09-15",64.94,51.08,0.00,0.00,
"CA001038330","1915-09-16",64.94,48.02,0.00,0.00,
"CA001038330","1915-09-17",69.08,46.94,0.00,0.00,
"CA001038330","1915-09-18",66.02,50.00,0.00,0.00,